Hourly Data Report for October 14, 2013

All times are specified in Local Standard Time (LST). Add 1 hour to adjust for Daylight Saving Time where and when it is observed.

PENTICTON A
BRITISH COLUMBIA

49°27'45.000" N
119°36'08.000" W
344.40 m
1126146
71889
YYF

Download Data

Hourly Data (October 2013)
Hourly Data Report for October 14, 2013
Temp Definition
°C
Dew Point Temp Definition
°C
Rel Hum Definition
%
Wind Dir Definition
10's deg

Wind Spd Definition
km/h
Visibility Definition
km
Stn Press Definition
kPa
Hmdx Definition


Wind Chill Definition


Weather Definition


TIME
00:00 Legend Double Dagger 2.2 -1.6 76 36 8 24.1 98.80     LegendNANA
01:00 Legend Double Dagger 1.0 -1.9 81 33 7 24.1 98.81     Clear
02:00 Legend Double Dagger 1.2 -1.9 80 36 8 24.1 98.84     LegendNANA
03:00 Legend Double Dagger 1.1 -2.0 80 35 12 24.1 98.88     LegendNANA
04:00 Legend Double Dagger 1.4 -1.8 79 36 12 24.1 98.92     Clear
05:00 Legend Double Dagger 1.1 -2.0 80 35 14 24.1 98.96     LegendNANA
06:00 Legend Double Dagger 0.9 -2.0 81 1 14 24.1 98.99     LegendNANA
07:00 Legend Double Dagger 1.7 -1.2 81 4 13 24.1 99.06     Clear
08:00 Legend Double Dagger 5.8 1.5 74 34 12 24.1 99.09     LegendNANA
09:00 Legend Double Dagger 8.1 3.0 70 2 14 24.1 99.10     LegendNANA
10:00 Legend Double Dagger 9.2 3.4 67 36 14 24.1 99.09     Clear
11:00 Legend Double Dagger 9.9 3.0 62 35 21 24.1 99.07     LegendNANA
12:00 Legend Double Dagger 10.9 3.0 58 34 19 24.1 99.02     LegendNANA
13:00 Legend Double Dagger 11.9 2.9 54 33 17 24.1 98.96     Clear
14:00 Legend Double Dagger 12.3 3.3 54 34 19 24.1 98.89     LegendNANA
15:00 Legend Double Dagger 12.5 4.0 56 36 18 24.1 98.85     LegendNANA
16:00 Legend Double Dagger 12.2 4.0 57 LegendMM LegendMM 24.1 98.86     Mainly Clear
17:00 Legend Double Dagger 8.6 2.2 64 33 10 24.1 98.84     LegendNANA
18:00 Legend Double Dagger 6.3 2.0 74 27 7 24.1 98.85     LegendNANA
19:00 Legend Double Dagger 5.9 2.4 78 36 14 24.1 98.86     Clear
20:00 Legend Double Dagger 3.1 0.7 84 34 10 24.1 98.90     LegendNANA
21:00 Legend Double Dagger 2.9 0.5 84 5 17 24.1 98.94     LegendNANA
22:00 Legend Double Dagger 3.6 0.5 80 35 13 24.1 98.98     Clear
23:00 Legend Double Dagger 3.7 0.1 77 35 13 24.1 98.96     LegendNANA

Notes on Data Quality.

Legend

  • E = Estimated
  • M = Missing
  • NA = Not Available
  • ‡ = Partner data that is not subject to review by the National Climate Archives
Date modified: